User: anonymous   Login
Location: Croydon
(51.3762°N, 0.0982°W)
Time: 19:20:10
(UTC+00:00)
Language:

XW-2F - Orbit

View from above orbital plane
View from above orbital plane
View from above satellite
View from above satellite

Ground track
Ground track

The orbit data is extracted from the following two-line orbital elements,

1 40910U 15049M   19324.51558044  .00000831  00000-0  44701-4 0  9996
2 40910  97.4659 326.0064 0015179  17.2780 100.9770 15.17542177230497
Epoch (UTC): 20 November 2019 12:22:26
Eccentricity: 0.0015179
inclination: 97.4659°
perigee height: 503 km
apogee height: 524 km
right ascension of ascending node: 326.0064°
argument of perigee: 17.2780°
revolutions per day: 15.17542177
mean anomaly at epoch: 100.9770°
orbit number at epoch: 23049

The dashed part of the orbit path shows where the satellite is in the earth's shadow,  

DLR